Date,Time,Wetness (Wet Dry or Ice),Wind Speed (m/s),Temperature (C),Humidity (%),Pressure (mb),Radiation (W/m^2)
2022-03-29,23:50:00,WET,6.93,2.47,58.3,771.00,1.2
2022-03-29,23:55:00,DRY,7.75,3.35,44.0,771.00,1.4
2022-03-30,00:00:00,DRY,6.83,3.37,48.0,771.00,1.2
2022-03-30,00:05:00,DRY,7.75,3.55,42.5,771.00,1.1
2022-03-30,00:10:00,WET,5.80,3.53,51.3,771.00,1.0
2022-03-30,00:15:00,WET,7.15,3.70,50.0,771.00,1.2
2022-03-30,00:20:00,WET,6.97,3.63,52.0,771.00,1.4
2022-03-30,00:25:00,DRY,7.80,4.00,41.0,771.00,1.2
2022-03-30,00:30:00,DRY,6.73,4.17,38.3,771.00,1.3
2022-03-30,00:35:00,DRY,8.05,4.10,36.5,771.00,1.4
2022-03-30,00:40:00,DRY,7.03,4.40,35.3,771.00,2.1
2022-03-30,00:45:00,DRY,6.80,4.65,33.0,771.00,1.4
2022-03-30,00:50:00,DRY,7.33,4.70,33.7,771.00,1.4
2022-03-30,00:55:00,DRY,7.25,4.55,33.5,771.00,1.4
2022-03-30,01:00:00,DRY,8.13,4.63,32.7,771.00,1.3
2022-03-30,01:05:00,DRY,9.30,4.70,30.5,771.00,1.3
2022-03-30,01:10:00,DRY,6.70,4.60,33.0,771.00,1.3
2022-03-30,01:15:00,DRY,7.45,4.55,33.0,771.00,1.1
2022-03-30,01:20:00,DRY,6.00,4.67,31.3,771.00,1.2
2022-03-30,01:25:00,DRY,6.40,4.65,31.5,771.00,1.2
2022-03-30,01:30:00,DRY,5.87,4.73,30.7,771.00,1.5
2022-03-30,01:35:00,DRY,5.80,4.55,32.5,771.00,1.1
2022-03-30,01:40:00,DRY,6.20,4.47,33.7,771.00,1.2
2022-03-30,01:45:00,DRY,7.70,5.00,29.0,771.00,1.3
2022-03-30,01:50:00,DRY,7.07,4.70,32.0,771.00,1.4
2022-03-30,01:55:00,DRY,7.45,4.85,29.5,771.00,1.1
2022-03-30,02:00:00,DRY,5.70,4.73,31.0,771.00,1.1
2022-03-30,02:05:00,DRY,5.60,5.00,30.0,771.00,2.2
2022-03-30,02:10:00,DRY,6.23,4.80,30.7,771.00,1.4
2022-03-30,02:15:00,DRY,5.95,4.70,30.0,771.00,1.3
2022-03-30,02:20:00,DRY,5.43,4.57,30.0,771.00,1.5
2022-03-30,02:25:00,DRY,7.15,4.65,30.5,771.00,1.6
2022-03-30,02:30:00,DRY,5.80,4.63,30.7,771.00,1.4
2022-03-30,02:35:00,DRY,6.65,4.85,29.0,771.00,1.2
2022-03-30,02:40:00,DRY,5.17,4.77,28.3,771.00,1.2
2022-03-30,02:45:00,DRY,6.00,4.85,27.0,771.00,1.4
2022-03-30,02:50:00,DRY,6.10,4.70,29.7,771.00,1.2
2022-03-30,02:55:00,DRY,5.90,5.15,24.5,771.00,1.2
2022-03-30,03:00:00,DRY,7.23,5.03,24.7,771.00,1.1
2022-03-30,03:05:00,DRY,5.45,4.95,25.5,771.00,1.2
2022-03-30,03:10:00,DRY,7.07,4.93,25.7,771.00,1.2
2022-03-30,03:15:00,DRY,6.00,4.80,26.0,771.00,1.1
2022-03-30,03:20:00,DRY,6.00,4.87,26.7,771.00,0.7
2022-03-30,03:25:00,DRY,5.75,4.65,28.5,770.50,1.0
2022-03-30,03:30:00,DRY,7.43,4.83,26.0,770.67,1.1
2022-03-30,03:35:00,DRY,6.90,4.75,27.5,770.50,1.3
2022-03-30,03:40:00,DRY,5.80,4.80,26.7,770.33,1.1
2022-03-30,03:45:00,DRY,5.85,4.40,30.0,770.00,1.1
2022-03-30,03:50:00,DRY,5.93,4.47,28.7,770.00,1.1
2022-03-30,03:55:00,DRY,7.25,4.50,29.0,770.00,1.3
2022-03-30,04:00:00,DRY,6.13,4.47,28.3,770.00,1.1
2022-03-30,04:05:00,DRY,5.75,4.35,28.0,770.00,1.0
2022-03-30,04:10:00,DRY,6.33,4.73,27.0,770.00,1.1
2022-03-30,04:15:00,DRY,5.35,4.50,28.0,770.00,1.4
2022-03-30,04:20:00,DRY,4.90,4.53,27.7,770.00,1.3
2022-03-30,04:25:00,DRY,7.15,4.70,26.0,770.00,1.5
2022-03-30,04:30:00,DRY,5.90,5.03,25.7,770.00,1.5
2022-03-30,04:35:00,DRY,7.60,5.00,25.0,770.00,1.3
2022-03-30,04:40:00,DRY,6.60,5.20,24.7,770.00,1.4
2022-03-30,04:45:00,DRY,5.90,4.80,25.5,770.00,1.4
2022-03-30,04:50:00,DRY,6.03,5.00,27.3,770.00,1.2
2022-03-30,04:55:00,DRY,5.35,5.00,26.0,770.00,1.1
2022-03-30,05:00:00,DRY,6.03,4.50,33.7,770.00,1.2
2022-03-30,05:05:00,DRY,5.60,4.55,29.5,770.00,1.1
2022-03-30,05:10:00,DRY,6.53,4.43,29.3,770.00,1.3
2022-03-30,05:15:00,DRY,5.35,4.80,27.0,770.00,1.3
2022-03-30,05:20:00,DRY,5.40,4.70,27.0,770.00,0.9
2022-03-30,05:25:00,DRY,6.20,4.35,27.5,770.00,1.2
2022-03-30,05:30:00,DRY,6.57,4.43,27.0,770.00,1.1
2022-03-30,05:35:00,DRY,7.35,4.40,27.0,770.00,1.2
2022-03-30,05:40:00,DRY,5.20,4.73,25.7,770.00,1.2
2022-03-30,05:45:00,DRY,5.25,5.35,21.0,770.00,1.2
2022-03-30,05:50:00,DRY,6.17,5.17,20.7,770.00,1.3
2022-03-30,05:55:00,DRY,6.75,5.35,20.0,770.00,1.2
2022-03-30,06:00:00,DRY,6.97,5.87,14.3,770.00,1.1
2022-03-30,06:05:00,DRY,5.65,5.80,17.5,770.00,1.8
2022-03-30,06:10:00,DRY,6.17,5.40,22.0,770.00,1.4
2022-03-30,06:15:00,DRY,6.30,5.30,19.5,770.50,1.6
2022-03-30,06:20:00,DRY,5.80,4.97,23.3,771.00,1.2
2022-03-30,06:25:00,DRY,4.85,4.70,25.0,771.00,1.4
2022-03-30,06:30:00,DRY,5.93,4.73,25.7,771.00,1.3
2022-03-30,06:35:00,DRY,6.15,5.10,17.0,771.00,1.1
2022-03-30,06:40:00,DRY,5.67,5.13,20.7,771.00,1.6
2022-03-30,06:45:00,DRY,6.00,4.85,20.5,771.00,0.9
2022-03-30,06:50:00,DRY,6.20,5.07,17.7,771.00,2.1
2022-03-30,06:55:00,DRY,6.95,5.15,20.0,771.00,3.0
2022-03-30,07:00:00,DRY,5.17,5.33,18.0,771.00,4.3
2022-03-30,07:05:00,DRY,6.50,5.20,16.5,771.00,9.4
2022-03-30,07:10:00,DRY,6.60,5.63,14.0,771.00,16.9
2022-03-30,07:15:00,DRY,6.15,5.95,13.5,771.00,16.8
2022-03-30,07:20:00,DRY,6.33,6.13,10.7,771.00,20.0
2022-03-30,07:25:00,DRY,5.25,6.20,14.0,771.00,23.2
2022-03-30,07:30:00,DRY,6.07,6.00,13.0,771.00,25.9
2022-03-30,07:35:00,DRY,5.80,6.05,14.0,771.00,29.6
2022-03-30,07:40:00,DRY,5.67,5.80,17.7,771.00,30.8
2022-03-30,07:45:00,DRY,6.90,6.20,12.5,771.00,32.8
2022-03-30,07:50:00,DRY,5.93,5.77,16.0,771.00,35.1
2022-03-30,07:55:00,DRY,5.20,5.90,16.5,771.00,36.5
2022-03-30,08:00:00,DRY,6.63,5.90,14.3,771.00,38.3
2022-03-30,08:05:00,DRY,6.80,6.15,13.5,771.00,40.5
2022-03-30,08:10:00,DRY,7.07,6.33,12.7,771.00,102.8
2022-03-30,08:15:00,DRY,6.10,6.35,15.5,771.00,327.1
2022-03-30,08:20:00,DRY,5.03,6.50,15.0,771.00,351.7
2022-03-30,08:25:00,DRY,5.30,6.30,16.5,771.00,375.9
2022-03-30,08:30:00,DRY,5.50,6.37,13.3,771.00,400.6
2022-03-30,08:35:00,DRY,4.95,6.50,13.5,771.00,424.4
2022-03-30,08:40:00,DRY,4.23,6.83,15.3,771.00,447.9
2022-03-30,08:45:00,DRY,5.55,7.00,11.0,771.00,471.9
2022-03-30,08:50:00,DRY,4.73,7.13,11.3,771.00,495.6
2022-03-30,08:55:00,DRY,3.55,7.20,14.0,771.00,518.7
2022-03-30,09:00:00,DRY,4.87,7.53,11.7,771.00,542.2
2022-03-30,09:05:00,DRY,4.80,7.75,12.5,771.00,564.2
2022-03-30,09:10:00,DRY,3.67,7.60,13.0,771.00,587.1
2022-03-30,09:15:00,DRY,3.80,7.60,12.0,771.00,609.0
2022-03-30,09:20:00,DRY,4.40,7.73,12.3,771.00,631.0
2022-03-30,09:25:00,DRY,3.50,7.85,13.5,771.00,652.5
2022-03-30,09:30:00,DRY,4.27,7.40,14.3,771.00,672.9
2022-03-30,09:35:00,DRY,4.95,7.70,13.5,771.50,692.2
2022-03-30,09:40:00,DRY,4.90,7.77,13.0,772.00,713.5
2022-03-30,09:45:00,DRY,4.00,7.70,14.0,772.00,733.2
2022-03-30,09:50:00,DRY,5.50,7.63,16.3,772.00,751.0
2022-03-30,09:55:00,DRY,5.15,7.70,14.0,772.00,770.3
2022-03-30,10:00:00,DRY,4.93,7.83,16.3,772.00,788.5
2022-03-30,10:05:00,DRY,4.60,7.95,14.0,772.00,805.9
2022-03-30,10:10:00,DRY,6.50,7.97,17.3,772.00,824.1
2022-03-30,10:15:00,DRY,5.90,7.95,17.0,772.00,839.8
2022-03-30,10:20:00,DRY,4.93,8.10,17.0,772.00,856.6
2022-03-30,10:25:00,DRY,4.05,8.00,16.5,772.00,872.6
2022-03-30,10:30:00,DRY,6.17,7.90,16.7,772.00,889.2
2022-03-30,10:35:00,DRY,7.60,7.90,13.0,772.00,904.0
2022-03-30,10:40:00,DRY,5.60,7.73,14.7,772.00,918.0
2022-03-30,10:45:00,DRY,5.35,7.75,17.0,772.00,932.7
2022-03-30,10:50:00,DRY,6.17,7.73,17.7,772.00,947.5
2022-03-30,10:55:00,DRY,6.90,7.90,19.5,772.00,961.6
2022-03-30,11:00:00,DRY,5.67,7.83,19.7,772.00,974.7
2022-03-30,11:05:00,DRY,6.20,7.95,20.5,772.00,987.2
2022-03-30,11:10:00,DRY,4.87,7.83,18.7,772.00,999.5
2022-03-30,11:15:00,DRY,6.20,7.90,20.0,772.00,1011.1
2022-03-30,11:20:00,DRY,6.83,7.90,19.7,772.00,1023.2
2022-03-30,11:25:00,DRY,6.55,8.00,22.0,772.00,1033.9
2022-03-30,11:30:00,DRY,5.93,7.97,21.3,772.00,1044.5
2022-03-30,11:35:00,DRY,6.90,8.10,21.5,772.00,1054.7
2022-03-30,11:40:00,DRY,6.37,7.93,21.3,772.00,1065.0
2022-03-30,11:45:00,DRY,5.90,7.80,18.5,772.00,1074.1
2022-03-30,11:50:00,DRY,5.33,7.80,18.0,772.00,1083.9
2022-03-30,11:55:00,DRY,5.40,8.05,20.5,772.00,1091.8
2022-03-30,12:00:00,DRY,6.53,8.07,20.3,772.00,1097.8
2022-03-30,12:05:00,DRY,5.55,7.90,19.0,772.00,1106.4
2022-03-30,12:10:00,DRY,5.40,8.00,19.0,772.00,1112.8
2022-03-30,12:15:00,DRY,5.10,7.90,19.0,772.00,1119.7
2022-03-30,12:20:00,DRY,6.20,7.87,18.3,772.00,1124.6
2022-03-30,12:25:00,DRY,7.05,7.80,21.5,772.00,1130.2
2022-03-30,12:30:00,DRY,6.77,8.00,19.3,772.00,1135.0
2022-03-30,12:35:00,DRY,5.85,7.90,20.5,772.00,1138.8
2022-03-30,12:40:00,DRY,5.57,7.93,20.0,772.00,1141.5
2022-03-30,12:45:00,DRY,7.00,7.85,18.5,772.00,1145.5
2022-03-30,12:50:00,DRY,6.67,7.93,19.3,772.00,1147.6
2022-03-30,12:55:00,DRY,5.40,7.95,18.5,772.00,1149.6
2022-03-30,13:00:00,DRY,6.73,7.83,19.7,772.00,1152.1
2022-03-30,13:05:00,DRY,6.00,7.95,19.5,772.00,1152.4
2022-03-30,13:10:00,DRY,6.27,7.87,21.7,772.00,1153.0
2022-03-30,13:15:00,DRY,6.10,7.80,18.5,772.00,1153.2
2022-03-30,13:20:00,DRY,5.03,8.03,17.7,772.00,1152.7
2022-03-30,13:25:00,DRY,6.35,7.95,15.0,772.00,1152.4
2022-03-30,13:30:00,DRY,5.55,7.65,17.0,772.00,1150.4
2022-03-30,13:35:00,DRY,4.90,7.60,21.0,772.00,1146.4
2022-03-30,13:40:00,DRY,5.73,7.73,16.7,772.00,1145.2
2022-03-30,13:45:00,DRY,5.20,7.90,16.5,772.00,1141.6
2022-03-30,13:50:00,DRY,4.93,7.67,19.3,772.00,1138.7
2022-03-30,13:55:00,DRY,4.90,7.70,20.5,772.00,1134.4
2022-03-30,14:00:00,DRY,4.50,8.17,24.3,772.00,1131.5
2022-03-30,14:05:00,DRY,4.70,8.40,20.0,772.00,1125.6
2022-03-30,14:10:00,DRY,4.10,8.70,28.3,772.00,1120.7
2022-03-30,14:15:00,DRY,3.95,8.35,23.5,772.00,1115.0
2022-03-30,14:20:00,DRY,4.53,8.60,30.0,772.00,1107.7
2022-03-30,14:25:00,DRY,4.35,8.80,20.5,772.00,1101.3
2022-03-30,14:30:00,DRY,4.23,8.67,22.3,772.00,1092.8
2022-03-30,14:35:00,DRY,4.70,9.10,20.0,772.00,1084.5
2022-03-30,14:40:00,DRY,4.60,9.13,21.7,772.00,1074.5
2022-03-30,14:45:00,DRY,5.05,9.40,21.0,772.00,1065.7
2022-03-30,14:50:00,DRY,5.07,9.03,22.0,771.67,1055.8
2022-03-30,14:55:00,DRY,5.30,9.15,24.0,772.00,1045.2
2022-03-30,15:00:00,DRY,5.47,8.63,24.7,771.67,1033.3
2022-03-30,15:05:00,DRY,5.00,8.55,29.5,771.50,1021.8
2022-03-30,15:10:00,DRY,5.55,7.90,32.0,771.00,1011.5
2022-03-30,15:15:00,DRY,5.60,7.60,22.0,771.00,996.6
2022-03-30,15:20:00,DRY,5.33,7.67,24.0,771.00,983.6
2022-03-30,15:25:00,DRY,4.85,7.55,19.5,771.00,970.8
2022-03-30,15:30:00,DRY,4.33,7.87,21.0,771.00,956.1
2022-03-30,15:35:00,DRY,4.80,7.70,27.5,771.00,942.2
2022-03-30,15:40:00,DRY,5.07,7.87,28.0,771.00,927.1
2022-03-30,15:45:00,DRY,4.75,7.90,20.0,771.00,912.5
2022-03-30,15:50:00,DRY,4.70,7.83,28.7,771.00,896.4
2022-03-30,15:55:00,DRY,4.40,7.45,39.0,771.00,880.5
2022-03-30,16:00:00,DRY,4.37,7.30,30.7,771.00,864.9
2022-03-30,16:05:00,DRY,3.75,7.30,29.5,771.00,848.4
2022-03-30,16:10:00,DRY,3.67,7.47,25.0,771.00,830.9
2022-03-30,16:15:00,DRY,4.20,7.75,22.0,771.00,815.8
2022-03-30,16:20:00,DRY,3.47,7.73,23.7,771.00,796.4
2022-03-30,16:25:00,DRY,2.75,7.65,33.0,771.00,777.7
2022-03-30,16:30:00,DRY,1.93,7.73,26.7,771.00,759.7
2022-03-30,16:35:00,DRY,2.65,8.65,24.5,771.00,741.0
2022-03-30,16:40:00,DRY,3.27,8.67,19.7,771.00,721.3
2022-03-30,16:45:00,DRY,3.35,8.45,17.0,771.00,701.1
2022-03-30,16:50:00,DRY,3.27,8.53,15.0,771.00,679.3
2022-03-30,16:55:00,DRY,3.10,8.75,14.5,771.00,658.8
2022-03-30,17:00:00,DRY,3.00,8.27,16.3,771.00,637.8
2022-03-30,17:05:00,DRY,3.35,8.25,15.5,771.00,615.5
2022-03-30,17:10:00,DRY,3.70,8.13,20.0,771.00,593.9
2022-03-30,17:15:00,DRY,4.25,8.00,20.0,771.00,571.1
2022-03-30,17:20:00,DRY,3.70,7.77,18.7,771.00,548.7
2022-03-30,17:25:00,DRY,4.40,7.30,14.5,771.00,527.0
2022-03-30,17:30:00,DRY,3.60,6.87,16.7,771.00,503.7
2022-03-30,17:35:00,DRY,4.05,7.25,14.5,771.00,481.1
2022-03-30,17:40:00,DRY,5.03,7.07,16.7,771.00,456.7
2022-03-30,17:45:00,DRY,4.70,6.95,20.0,771.00,432.9
2022-03-30,17:50:00,DRY,5.20,6.77,18.3,771.00,408.6
2022-03-30,17:55:00,DRY,4.85,6.75,16.5,771.00,384.4
2022-03-30,18:00:00,DRY,5.33,6.60,14.0,771.00,359.8
2022-03-30,18:05:00,DRY,5.35,6.15,16.5,771.00,335.5
2022-03-30,18:10:00,DRY,4.93,5.73,17.3,771.00,311.6
2022-03-30,18:15:00,DRY,4.80,5.75,18.5,771.00,287.4
2022-03-30,18:20:00,DRY,4.63,5.40,22.7,771.00,263.2
2022-03-30,18:25:00,DRY,5.25,5.15,25.5,771.00,240.4
2022-03-30,18:30:00,DRY,5.10,5.00,25.0,771.00,217.0
2022-03-30,18:35:00,DRY,4.15,4.95,27.0,771.00,168.7
2022-03-30,18:40:00,DRY,4.70,4.80,26.3,771.00,41.3
2022-03-30,18:45:00,DRY,4.90,4.65,26.5,771.00,35.5
2022-03-30,18:50:00,DRY,4.10,4.50,28.3,771.00,33.2
2022-03-30,18:55:00,DRY,5.20,4.30,27.5,771.00,30.8
2022-03-30,19:00:00,DRY,4.83,4.13,27.3,771.00,28.3
2022-03-30,19:05:00,DRY,4.70,3.95,29.0,771.00,25.4
2022-03-30,19:10:00,DRY,4.67,3.77,31.7,771.00,22.9
2022-03-30,19:15:00,DRY,4.50,3.65,34.0,771.00,19.4
2022-03-30,19:20:00,DRY,5.77,3.47,35.3,771.00,14.4
2022-03-30,19:25:00,DRY,4.70,3.30,35.5,771.00,10.4
2022-03-30,19:30:00,DRY,5.00,3.37,34.0,771.00,7.6
2022-03-30,19:35:00,DRY,4.85,3.35,32.5,771.00,4.2
2022-03-30,19:40:00,DRY,5.73,3.30,32.3,771.00,2.2
2022-03-30,19:45:00,DRY,4.65,3.35,31.0,771.00,1.2
2022-03-30,19:50:00,DRY,4.40,3.20,31.3,771.00,1.3
2022-03-30,19:55:00,DRY,6.60,3.25,32.0,771.00,0.9
2022-03-30,20:00:00,DRY,4.80,3.27,32.0,771.00,1.0
2022-03-30,20:05:00,DRY,5.50,3.15,33.5,771.50,1.5
2022-03-30,20:10:00,DRY,4.97,3.17,33.3,772.00,1.1
2022-03-30,20:15:00,DRY,4.50,3.10,33.5,772.00,1.1
2022-03-30,20:20:00,DRY,4.83,3.13,32.3,772.00,1.2
2022-03-30,20:25:00,DRY,4.60,3.15,32.0,772.00,1.0
2022-03-30,20:30:00,DRY,4.10,3.23,30.0,772.00,1.3
2022-03-30,20:35:00,DRY,4.15,3.05,31.5,772.00,0.9
2022-03-30,20:40:00,DRY,4.70,4.23,19.0,772.00,1.3
2022-03-30,20:45:00,DRY,4.95,4.20,20.0,772.00,1.4
2022-03-30,20:50:00,DRY,4.63,4.43,17.7,772.00,1.7
2022-03-30,20:55:00,DRY,5.25,4.30,18.5,772.00,0.6
2022-03-30,21:00:00,DRY,5.23,4.07,19.3,772.00,1.4
2022-03-30,21:05:00,DRY,6.75,4.15,20.0,772.00,1.5
2022-03-30,21:10:00,DRY,5.63,4.17,18.3,772.00,1.5
2022-03-30,21:15:00,DRY,6.40,3.90,23.0,772.00,0.8
2022-03-30,21:20:00,DRY,5.90,3.47,27.7,772.00,1.0
2022-03-30,21:25:00,DRY,6.55,3.30,29.0,772.00,1.1
2022-03-30,21:30:00,DRY,5.73,3.43,27.7,772.00,1.1
2022-03-30,21:35:00,DRY,6.20,3.50,27.5,772.00,1.2
2022-03-30,21:40:00,DRY,6.43,3.50,28.0,772.00,0.8
2022-03-30,21:45:00,DRY,6.85,3.50,26.5,772.00,0.8
2022-03-30,21:50:00,DRY,5.53,3.63,25.3,772.00,0.9
2022-03-30,21:55:00,DRY,4.35,3.70,23.5,772.00,1.4
2022-03-30,22:00:00,DRY,5.57,3.83,21.7,772.00,1.2
2022-03-30,22:05:00,DRY,6.00,3.80,23.0,772.50,1.1
2022-03-30,22:10:00,DRY,5.53,3.57,24.3,773.00,0.8
2022-03-30,22:15:00,DRY,8.00,3.50,25.5,773.00,1.8
2022-03-30,22:20:00,DRY,6.83,3.40,28.0,772.67,1.2
2022-03-30,22:25:00,DRY,7.35,3.30,31.5,773.00,1.3
2022-03-30,22:30:00,DRY,7.33,3.27,33.0,772.67,1.0
2022-03-30,22:35:00,DRY,7.60,3.25,36.0,773.00,1.2
2022-03-30,22:40:00,DRY,6.23,3.30,36.0,773.00,0.9
2022-03-30,22:45:00,DRY,5.60,3.20,38.0,773.00,1.0
2022-03-30,22:50:00,DRY,7.90,3.17,39.0,773.00,1.2
2022-03-30,22:55:00,DRY,7.80,3.05,41.5,772.50,0.9
2022-03-30,23:00:00,DRY,5.90,3.03,40.7,773.00,1.0
2022-03-30,23:05:00,DRY,7.40,3.45,33.0,773.00,0.9
2022-03-30,23:10:00,DRY,5.93,3.43,37.0,773.00,1.0
2022-03-30,23:15:00,DRY,6.75,3.05,39.5,773.00,1.2
2022-03-30,23:20:00,DRY,6.57,3.10,39.3,773.00,1.0
2022-03-30,23:25:00,DRY,5.45,2.90,43.0,773.00,1.0
2022-03-30,23:30:00,DRY,5.63,2.80,42.7,773.00,1.0
2022-03-30,23:35:00,DRY,6.25,3.40,27.5,773.00,1.1
2022-03-30,23:40:00,DRY,5.90,3.63,31.7,773.00,1.3
2022-03-30,23:45:00,DRY,6.80,3.55,34.0,773.00,1.0
2022-03-30,23:50:00,DRY,5.53,3.07,40.7,773.00,0.8
2022-03-30,23:55:00,DRY,5.65,2.90,40.5,773.00,1.1
2022-03-31,00:00:00,DRY,6.33,3.10,37.3,772.67,1.2
2022-03-31,00:05:00,DRY,6.00,3.45,34.0,772.50,1.4
2022-03-31,00:10:00,DRY,4.87,3.63,30.7,772.00,1.1
2022-03-31,00:15:00,DRY,6.10,3.85,25.5,772.50,1.4
2022-03-31,00:20:00,DRY,5.97,3.97,26.0,772.00,1.4
2022-03-31,00:25:00,DRY,5.85,4.00,26.0,772.00,1.2
2022-03-31,00:30:00,DRY,5.20,4.10,23.3,772.00,1.7
2022-03-31,00:35:00,DRY,5.45,4.25,24.0,772.50,1.4
2022-03-31,00:40:00,DRY,5.23,4.43,21.7,772.00,1.4
2022-03-31,00:45:00,DRY,4.95,4.55,19.5,772.00,1.1
2022-03-31,00:50:00,DRY,5.63,4.67,18.7,772.00,1.3
2022-03-31,00:55:00,DRY,5.00,4.65,17.0,772.00,1.2
2022-03-31,01:00:00,DRY,4.90,4.57,21.3,772.00,1.2
2022-03-31,01:05:00,DRY,5.70,4.55,19.5,772.00,1.0
2022-03-31,01:10:00,DRY,6.13,4.70,18.3,772.00,1.4
2022-03-31,01:15:00,DRY,5.80,4.55,21.5,772.00,1.3
2022-03-31,01:20:00,DRY,5.17,4.47,22.7,772.00,1.2
2022-03-31,01:25:00,DRY,5.75,4.65,17.5,772.00,0.6
2022-03-31,01:30:00,DRY,4.73,4.63,17.7,772.00,1.8
2022-03-31,01:35:00,DRY,4.70,4.60,23.0,772.00,1.2
2022-03-31,01:40:00,DRY,5.77,4.60,18.3,772.00,1.3
2022-03-31,01:45:00,DRY,4.60,4.85,17.0,772.00,1.1
2022-03-31,01:50:00,DRY,5.03,5.20,16.3,772.00,1.1
2022-03-31,01:55:00,DRY,4.45,5.40,12.5,772.00,1.1
2022-03-31,02:00:00,DRY,3.77,5.60,13.3,772.00,1.2
2022-03-31,02:05:00,DRY,4.50,5.95,12.5,772.00,1.1
2022-03-31,02:10:00,DRY,4.87,6.07,10.0,772.00,0.9
2022-03-31,02:15:00,DRY,5.15,6.25,11.5,772.00,1.2
2022-03-31,02:20:00,DRY,5.20,5.60,13.3,772.00,1.0
2022-03-31,02:25:00,DRY,4.35,5.15,15.5,772.00,2.1
2022-03-31,02:30:00,DRY,5.03,4.57,18.3,772.00,1.5
2022-03-31,02:35:00,DRY,4.95,4.30,20.0,772.00,1.5
2022-03-31,02:40:00,DRY,5.50,4.00,22.0,772.00,1.5
2022-03-31,02:45:00,DRY,6.05,3.55,27.0,772.00,1.4
2022-03-31,02:50:00,DRY,5.90,3.57,25.3,772.00,1.1
2022-03-31,02:55:00,DRY,4.25,3.50,24.5,772.00,1.3
2022-03-31,03:00:00,DRY,5.27,3.50,25.3,772.00,1.5
2022-03-31,03:05:00,DRY,6.10,3.35,28.5,771.00,1.3
2022-03-31,03:10:00,DRY,6.23,3.27,30.7,771.00,1.4
2022-03-31,03:15:00,DRY,6.05,3.70,27.0,771.00,1.4
2022-03-31,03:20:00,DRY,5.57,3.40,29.0,771.00,1.3
2022-03-31,03:25:00,DRY,4.15,3.40,26.0,771.00,1.4
2022-03-31,03:30:00,DRY,5.27,3.23,29.3,771.00,1.4
2022-03-31,03:35:00,DRY,4.95,3.75,19.5,771.00,1.4
2022-03-31,03:40:00,DRY,4.83,3.93,15.0,771.00,1.9
2022-03-31,03:45:00,DRY,5.40,3.80,17.5,771.00,1.1
2022-03-31,03:50:00,DRY,4.63,4.27,12.0,771.00,1.5
2022-03-31,03:55:00,DRY,4.45,4.50,11.0,771.00,0.9
2022-03-31,04:00:00,DRY,5.60,4.27,12.0,771.00,1.9
2022-03-31,04:05:00,DRY,5.15,4.50,10.5,771.00,1.6
2022-03-31,04:10:00,DRY,6.20,5.00,12.0,771.00,1.7
2022-03-31,04:15:00,DRY,4.40,4.90,12.5,771.00,1.5
2022-03-31,04:20:00,DRY,5.20,4.77,12.3,771.00,1.0
2022-03-31,04:25:00,DRY,4.95,4.60,12.0,771.00,1.2
2022-03-31,04:30:00,DRY,6.50,5.33,11.0,771.00,1.5
2022-03-31,04:35:00,DRY,4.70,5.65,11.0,771.00,1.1
2022-03-31,04:40:00,DRY,7.13,5.90,10.7,771.00,2.0
2022-03-31,04:45:00,DRY,6.20,6.00,12.0,771.00,1.0
2022-03-31,04:50:00,DRY,6.83,5.67,16.3,771.00,1.5
2022-03-31,04:55:00,DRY,9.15,5.90,13.0,771.00,0.8
2022-03-31,05:00:00,DRY,6.03,5.07,12.3,771.00,1.3
2022-03-31,05:05:00,DRY,6.30,4.60,11.0,771.00,0.8
2022-03-31,05:10:00,DRY,6.23,5.17,11.0,771.00,0.8
2022-03-31,05:15:00,DRY,5.45,5.20,10.5,771.00,1.5
2022-03-31,05:20:00,DRY,5.67,5.17,11.0,771.00,1.4
2022-03-31,05:25:00,DRY,5.60,5.05,12.0,771.00,1.0
2022-03-31,05:30:00,DRY,4.90,4.77,14.0,771.00,1.1
2022-03-31,05:35:00,DRY,6.85,4.70,14.0,771.00,1.4
2022-03-31,05:40:00,DRY,5.20,5.37,11.7,771.00,1.2
2022-03-31,05:45:00,DRY,4.10,5.30,14.5,771.00,1.3
2022-03-31,05:50:00,DRY,4.63,5.80,15.0,771.00,1.3
2022-03-31,05:55:00,DRY,4.95,6.20,16.5,771.00,0.5
2022-03-31,06:00:00,DRY,5.17,6.23,18.7,771.67,1.0
2022-03-31,06:05:00,DRY,6.15,6.45,23.0,771.50,1.5
2022-03-31,06:10:00,DRY,5.20,6.37,21.7,771.33,1.7
2022-03-31,06:15:00,DRY,5.10,6.40,21.0,771.50,1.6
2022-03-31,06:20:00,DRY,5.50,6.37,19.7,771.33,1.5
2022-03-31,06:25:00,DRY,5.00,6.35,18.5,772.00,1.2
2022-03-31,06:30:00,DRY,5.17,6.23,18.3,771.33,1.3
2022-03-31,06:35:00,DRY,5.50,6.00,16.0,772.00,1.5
2022-03-31,06:40:00,DRY,4.50,5.87,13.7,772.00,1.3
2022-03-31,06:45:00,DRY,7.00,5.90,16.5,772.00,1.6
2022-03-31,06:50:00,DRY,6.10,6.00,19.0,772.00,2.3
2022-03-31,06:55:00,DRY,6.80,6.05,19.0,772.00,4.0
2022-03-31,07:00:00,DRY,5.70,5.97,17.3,772.00,5.9
2022-03-31,07:05:00,DRY,6.60,5.90,16.0,772.00,12.2
2022-03-31,07:10:00,DRY,5.90,6.10,15.0,772.00,21.6
2022-03-31,07:15:00,DRY,6.00,6.10,11.5,772.00,18.0
2022-03-31,07:20:00,DRY,6.93,5.93,10.0,772.00,21.5
2022-03-31,07:25:00,DRY,6.40,5.50,9.5,772.00,25.0
2022-03-31,07:30:00,DRY,6.60,5.70,7.7,772.00,27.8
2022-03-31,07:35:00,DRY,5.25,5.85,8.0,772.00,30.2
2022-03-31,07:40:00,DRY,6.90,6.03,7.3,772.00,33.4
2022-03-31,07:45:00,DRY,5.85,5.85,8.5,772.00,35.3
2022-03-31,07:50:00,DRY,5.97,5.90,7.7,772.00,37.6
2022-03-31,07:55:00,DRY,6.55,6.00,9.0,772.00,39.5
2022-03-31,08:00:00,DRY,6.37,6.20,9.0,772.00,41.1
2022-03-31,08:05:00,DRY,5.55,6.40,9.5,772.00,43.0
2022-03-31,08:10:00,DRY,4.80,6.50,12.7,772.00,145.1
2022-03-31,08:15:00,DRY,4.25,6.80,13.5,772.00,336.1
2022-03-31,08:20:00,DRY,5.80,6.93,14.7,772.00,361.5
2022-03-31,08:25:00,DRY,4.75,6.95,12.0,772.00,386.4
2022-03-31,08:30:00,DRY,5.57,6.97,14.0,772.00,405.4
2022-03-31,08:35:00,DRY,5.50,6.90,12.5,772.00,429.2
2022-03-31,08:40:00,DRY,4.87,7.03,10.7,772.00,460.0
2022-03-31,08:45:00,DRY,4.10,7.20,10.0,772.00,482.6
2022-03-31,08:50:00,DRY,3.57,7.63,10.0,772.00,506.3
2022-03-31,08:55:00,DRY,4.85,7.60,12.0,772.00,530.3
2022-03-31,09:00:00,DRY,3.60,7.43,13.7,772.00,553.0
2022-03-31,09:05:00,DRY,2.40,7.40,13.0,772.00,575.0
2022-03-31,09:10:00,DRY,4.17,7.30,14.0,772.00,597.0
2022-03-31,09:15:00,DRY,3.95,7.25,16.5,772.00,617.8
2022-03-31,09:20:00,DRY,2.60,7.50,17.3,772.33,640.0
2022-03-31,09:25:00,DRY,3.35,7.70,19.0,773.00,661.1
2022-03-31,09:30:00,DRY,3.10,7.70,20.7,773.00,681.3
2022-03-31,09:35:00,DRY,4.25,7.80,18.5,773.00,701.0
2022-03-31,09:40:00,DRY,5.30,7.90,19.0,773.00,720.8
2022-03-31,09:45:00,DRY,5.45,7.65,21.5,773.00,739.3
2022-03-31,09:50:00,DRY,6.63,7.67,20.7,773.00,760.0
2022-03-31,09:55:00,DRY,5.35,7.60,21.5,773.00,779.0
2022-03-31,10:00:00,DRY,5.63,7.80,23.0,773.00,797.5
2022-03-31,10:05:00,DRY,4.10,7.90,25.5,773.00,815.0
2022-03-31,10:10:00,DRY,5.37,8.37,22.7,773.00,833.0
2022-03-31,10:15:00,DRY,3.20,8.30,22.5,773.00,849.0
2022-03-31,10:20:00,DRY,4.63,8.73,22.3,773.00,866.1
2022-03-31,10:25:00,DRY,4.10,8.85,24.0,773.00,882.4
2022-03-31,10:30:00,DRY,4.30,8.97,23.3,773.00,898.5
2022-03-31,10:35:00,DRY,4.15,8.80,24.0,773.00,915.4
2022-03-31,10:40:00,DRY,2.90,8.63,25.3,773.00,929.5
2022-03-31,10:45:00,DRY,4.20,8.75,25.0,773.00,945.5
2022-03-31,10:50:00,DRY,5.20,8.73,24.3,773.00,959.0
2022-03-31,10:55:00,DRY,2.75,8.75,24.0,773.00,971.8
2022-03-31,11:00:00,DRY,4.23,8.67,26.3,773.00,986.5
2022-03-31,11:05:00,DRY,3.40,8.75,26.0,773.00,999.4
2022-03-31,11:10:00,DRY,5.13,8.73,26.3,773.00,1011.2
2022-03-31,11:15:00,DRY,5.25,8.80,27.5,773.00,1024.2
2022-03-31,11:20:00,DRY,4.27,9.13,25.0,773.00,1035.6
2022-03-31,11:25:00,DRY,4.90,9.40,26.0,773.00,1046.7
2022-03-31,11:30:00,DRY,4.07,9.40,27.0,773.00,1057.5
2022-03-31,11:35:00,DRY,4.55,9.25,25.0,773.00,1067.8
2022-03-31,11:40:00,DRY,5.83,9.10,27.3,773.00,1076.5
2022-03-31,11:45:00,DRY,3.35,9.10,29.5,773.00,1085.2
2022-03-31,11:50:00,DRY,3.73,9.03,32.0,773.00,1093.6
2022-03-31,11:55:00,DRY,5.00,9.25,36.5,773.00,1102.1
2022-03-31,12:00:00,DRY,4.40,8.60,37.7,773.00,1108.8
2022-03-31,12:05:00,DRY,6.05,8.65,37.0,773.00,1114.8
2022-03-31,12:10:00,DRY,4.07,8.63,37.0,773.00,1120.8
2022-03-31,12:15:00,DRY,5.90,8.85,35.0,773.00,1128.1
2022-03-31,12:20:00,DRY,4.37,9.00,38.0,773.00,1131.6
2022-03-31,12:25:00,DRY,5.70,9.00,32.5,773.00,1136.2
2022-03-31,12:30:00,DRY,5.13,8.83,30.3,773.00,1141.1
2022-03-31,12:35:00,DRY,4.85,8.95,33.0,773.00,1144.3
2022-03-31,12:40:00,DRY,5.67,8.87,30.0,773.00,1147.9
2022-03-31,12:45:00,DRY,4.90,8.95,28.0,773.00,1152.5
2022-03-31,12:50:00,DRY,7.00,9.20,25.0,773.00,1154.6
2022-03-31,12:55:00,DRY,7.40,8.95,28.0,773.00,1155.8
2022-03-31,13:00:00,DRY,5.57,9.27,28.0,773.00,1158.5
2022-03-31,13:05:00,DRY,5.20,9.80,28.0,773.00,1159.5
2022-03-31,13:10:00,DRY,5.03,9.80,28.0,773.00,1159.3
2022-03-31,13:15:00,DRY,6.00,9.85,29.5,773.00,1159.0
2022-03-31,13:20:00,DRY,5.33,9.70,30.3,773.00,1157.9
2022-03-31,13:25:00,DRY,3.30,9.90,32.5,773.00,1157.1
2022-03-31,13:30:00,DRY,5.10,9.60,32.0,773.00,1156.6
2022-03-31,13:35:00,DRY,6.70,9.80,33.0,773.00,1152.1
2022-03-31,13:40:00,DRY,5.83,9.73,33.3,773.00,1148.0
2022-03-31,13:45:00,DRY,5.85,9.65,35.5,773.00,1143.6
2022-03-31,13:50:00,DRY,4.43,10.00,35.3,773.00,1140.6
2022-03-31,13:55:00,DRY,6.55,9.95,33.5,773.00,1136.5
2022-03-31,14:00:00,DRY,5.93,9.67,40.7,773.00,1130.2
2022-03-31,14:05:00,DRY,5.05,9.65,44.5,773.00,1125.8
2022-03-31,14:10:00,DRY,6.67,9.50,42.3,773.00,1119.1
2022-03-31,14:15:00,DRY,7.75,9.30,43.0,773.00,1112.5
2022-03-31,14:20:00,DRY,6.80,9.57,41.7,773.00,1105.5
2022-03-31,14:25:00,DRY,5.35,9.70,42.0,773.00,1098.7
2022-03-31,14:30:00,DRY,6.47,9.60,43.7,773.00,1091.7
2022-03-31,14:35:00,DRY,8.10,9.60,42.0,772.50,1084.7
2022-03-31,14:40:00,DRY,5.77,9.73,39.7,772.00,1076.2